Powrót do katalogu

COSMOS 1066

AktywnyMilitariaPO
NORAD 11165·PAYLOAD·🇷🇺 Russia

Wystrzelony Dec 23, 1978 z Plesetsk Cosmodrome

Loading…

Następne Przeloty (najbliższe 24 godziny)

TLE

ŚwieżeSource: Space-Track

Epoka: Sep 14, 2026, 04:10 UTC

1 11165U 78121A   26257.17376836  .00000045  00000-0  17651-4 0  9999
2 11165  81.2399 168.7761 0048973 202.5335 157.3687 14.12116891973881

Śledź COSMOS 1066 w czasie rzeczywistym z AllMySat

Download on the App Store